x

9099004 - Point Iroquois, Mi (ptim4) Weather Station

6:54am - Fri 28th Nov 2014 All times are CST. -6 hours from GMT.

  • Wind
    7mph, 11mph gusts
  • Air Temp 4°f
  • Sea Pressure 1023.5mb
  • 9099004 - Point Iroquois, Mi
  • 9099004 - Point Iroquois, Mi

More Historic Weather Station data

Upgrade to MSW Pro to gain access to the past 30 days of data for over 8000 Wavebouys and Weather Stations around the globe.

Join Pro

Comparision Forecast

View Surf forecast
   
Fri 11/28 6:54am 7 11 mph 1023.5mb 4f
6:48am 7 14 mph 1023.7mb 3f
6:42am 6 9 mph 1023.7mb 3f
6:36am 7 13 mph 1023.8mb 3f
6:30am 6 8 mph 1023.9mb 3f
6:24am 6 16 mph 1023.9mb 3f
6:18am 6 17 mph 1024mb 3f
6:12am 6 9 mph 1024mb 3f
6:06am 6 11 mph 1024.1mb 3f
6:00am 6 15 mph 1024mb 3f
5:54am 6 14 mph 1024mb 2f
5:48am 6 14 mph 1024mb 2f
5:42am 5 20 mph 1024mb 2f
5:36am 8 16 mph 1024mb 2f
5:30am 6 17 mph 1024.1mb 2f
5:24am 6 16 mph 1024.2mb 2f
5:18am 8 15 mph 1024.3mb 2f
5:12am 5 18 mph 1024.3mb 2f
5:06am 7 13 mph 1024.2mb 2f
5:00am 8 18 mph 1024.1mb 2f
4:54am 7 13 mph 1024.1mb 2f
4:48am 7 14 mph 1024.2mb 2f
4:42am 6 16 mph 1024.1mb 2f
4:36am 7 17 mph 1024.3mb 2f
4:30am 6 17 mph 1024.3mb 2f
4:24am 6 14 mph 1024.4mb 2f
4:18am 6 10 mph 1024.5mb 2f
4:12am 6 9 mph 1024.5mb 2f
4:06am 6 10 mph 1024.6mb 2f
4:00am 6 14 mph 1024.7mb 2f
3:54am 6 8 mph 1024.8mb 3f
3:48am 5 9 mph 1024.8mb 3f
3:42am 6 16 mph 1024.7mb 3f
3:36am 5 8 mph 1024.9mb 3f
3:30am 6 9 mph 1024.9mb 3f
3:24am 6 8 mph 1024.8mb 3f
3:18am 6 14 mph 1025mb 3f
3:12am 6 8 mph 1025mb 3f
3:06am 5 7 mph 1025.1mb 3f
3:00am 6 9 mph 1025.2mb 3f
2:54am 5 22 mph 1025.2mb 3f
2:48am 5 21 mph 1025.2mb 4f
2:42am 5 32 mph 1025.2mb 4f
2:36am 7 15 mph 1025.2mb 4f
2:30am 7 14 mph 1025.2mb 4f
2:24am 6 17 mph 1025.2mb 4f
2:18am 7 23 mph 1025.1mb 5f
2:12am 6 15 mph 1025.1mb 5f
2:06am 7 11 mph 1025.1mb 5f
2:00am 7 11 mph 1025.1mb 5f
1:54am 7 13 mph 1025.1mb 5f
1:48am 6 10 mph 1025.1mb 5f
1:42am 6 10 mph 1025.1mb 5f
1:36am 5 8 mph 1025.1mb 5f
1:30am 5 9 mph 1025mb 5f
1:24am 6 8 mph 1025mb 5f
1:18am 6 9 mph 1025mb 5f
1:12am 6 10 mph 1025mb 5f
1:06am 7 9 mph 1025mb 5f
1:00am 5 8 mph 1024.9mb 5f
12:54am 3 8 mph 1024.9mb 6f
12:48am 3 8 mph 1024.8mb 6f
12:42am 5 8 mph 1025mb 6f
12:36am 6 9 mph 1024.8mb 6f
12:30am 5 7 mph 1024.9mb 7f
12:24am 5 7 mph 1024.9mb 7f
12:18am 5 10 mph 1024.9mb 8f
12:12am 9 14 mph 1024.9mb 9f
12:06am 3 7 mph 1024.8mb 10f
12:00am 7 13 mph 1024.8mb 10f
Thu 11/27 11:54pm 7 10 mph 1024.7mb 10f
11:48pm 2 6 mph 1024.7mb 10f
11:42pm 6 13 mph 1024.7mb 10f
11:36pm 7 10 mph 1024.6mb 11f
11:30pm 5 10 mph 1024.5mb 11f
11:24pm 7 18 mph 1024.5mb 11f
11:18pm 7 14 mph 1024.3mb 11f
11:12pm 6 11 mph 1024.4mb 11f
11:06pm 7 10 mph 1024.4mb 11f
11:00pm 5 13 mph 1024.5mb 11f
10:54pm 7 13 mph 1024.5mb 11f
10:48pm 8 13 mph 1024.5mb 11f
10:42pm 8 13 mph 1024.7mb 11f
10:36pm 7 11 mph 1024.7mb 11f
10:30pm 6 13 mph 1024.7mb 11f
10:24pm 9 16 mph 1024.8mb 12f
10:18pm 11 14 mph 1024.7mb 12f
10:12pm 10 15 mph 1024.7mb 12f
10:06pm 11 16 mph 1024.8mb 12f
10:00pm 11 17 mph 1024.7mb 13f
9:54pm 14 18 mph 1024.8mb 13f
9:48pm 13 18 mph 1024.8mb 13f
9:42pm 15 17 mph 1024.8mb 13f
9:36pm 14 18 mph 1024.8mb 13f
9:30pm 16 22 mph 1024.7mb 14f
9:24pm 16 21 mph 1024.7mb 14f
9:18pm 16 22 mph 1024.6mb 14f
9:12pm 16 21 mph 1024.6mb 14f
9:06pm 17 21 mph 1024.7mb 14f
9:00pm 15 23 mph 1024.5mb 13f
8:54pm 18 23 mph 1024.5mb 14f
8:48pm 16 23 mph 1024.4mb 14f
8:42pm 17 25 mph 1024.5mb 14f
8:36pm 17 21 mph 1024.4mb 15f
8:30pm 17 24 mph 1024.3mb 15f
8:24pm 20 24 mph 1024.3mb 15f
8:18pm 20 25 mph - 16f
8:12pm 17 25 mph - 16f
8:06pm 18 25 mph - 15f
8:00pm 16 20 mph 1024.2mb 15f
7:54pm 18 24 mph 1024.1mb 15f
7:48pm 17 22 mph 1024.1mb 15f
7:42pm 16 22 mph 1024mb 15f
7:36pm 18 23 mph 1024mb 16f
7:30pm 17 22 mph 1024mb 17f
7:24pm 18 24 mph 1023.9mb 17f
7:18pm 21 24 mph 1023.8mb 16f
7:12pm 20 24 mph 1023.7mb 18f
7:06pm 18 23 mph 1023.7mb 18f
7:00pm 21 25 mph 1023.7mb 19f
6:54pm 20 25 mph 1023.6mb 18f
6:48pm 20 26 mph 1023.6mb 18f
6:42pm 21 25 mph 1023.6mb 18f
6:36pm 21 25 mph 1023.7mb 18f
6:30pm 21 29 mph 1023.6mb 19f
6:24pm 23 29 mph 1023.6mb 19f
6:18pm 22 29 mph 1023.6mb 19f
6:12pm 23 29 mph 1023.6mb 19f
6:06pm 21 29 mph 1023.7mb 19f
6:00pm 22 29 mph 1023.7mb 19f
5:54pm 21 26 mph 1023.7mb 19f
5:48pm 24 30 mph 1023.7mb 19f
5:42pm 28 32 mph 1023.7mb 19f
5:36pm 25 29 mph 1023.6mb 19f
5:30pm 21 33 mph 1023.7mb 18f
5:24pm 22 34 mph 1023.6mb 19f
5:18pm 24 29 mph 1023.6mb 20f
5:12pm 24 30 mph 1023.7mb -
5:06pm 23 30 mph 1023.7mb 19f
5:00pm 24 34 mph 1023.6mb 19f
4:54pm 25 30 mph 1023.6mb 19f
4:48pm 24 30 mph 1023.5mb 19f
4:42pm 26 33 mph 1023.5mb 20f
4:36pm 22 29 mph 1023.4mb 19f
4:30pm 23 31 mph 1023.6mb 19f
4:24pm 29 32 mph 1023.4mb 19f
4:18pm 29 34 mph 1023.4mb 20f
4:12pm 26 31 mph 1023.3mb 19f
4:06pm 25 30 mph 1023.2mb 19f
4:00pm 24 36 mph 1023.3mb 19f
3:54pm 26 34 mph 1023.2mb 19f
3:48pm 29 33 mph 1023.1mb 19f
3:42pm 25 31 mph 1023.1mb 19f
3:36pm 29 36 mph 1023.1mb 19f
3:30pm 24 32 mph 1023mb 19f
3:24pm 26 33 mph 1022.9mb 19f
3:18pm 25 31 mph 1022.9mb 19f
3:12pm 29 37 mph 1022.9mb 20f
3:06pm 24 32 mph 1022.7mb 19f
3:00pm 25 33 mph 1022.8mb 19f
2:54pm 25 33 mph 1022.7mb 19f
2:48pm 29 33 mph 1022.7mb 18f
2:42pm 29 34 mph 1022.6mb 18f
2:36pm 28 33 mph 1022.6mb 19f
2:30pm 28 34 mph 1022.5mb 19f
2:24pm 26 33 mph 1022.4mb 19f
2:18pm 25 31 mph 1022.3mb 18f
2:12pm 26 34 mph 1022.3mb 19f
2:06pm 28 32 mph 1022.3mb 18f
2:00pm 25 36 mph 1022.3mb 19f
1:54pm 29 36 mph 1022.3mb 18f
1:48pm 30 33 mph 1022.2mb 19f
1:42pm 25 32 mph 1022.3mb 19f
1:36pm 28 36 mph 1022.1mb 19f
1:30pm 26 32 mph 1022.2mb 19f
1:24pm 28 32 mph 1022.2mb 19f
1:18pm 28 34 mph 1022.2mb 19f
1:12pm 28 34 mph 1022.2mb 19f
1:06pm 26 34 mph 1022.2mb 19f
1:00pm 26 34 mph 1022.2mb 19f
12:54pm 28 36 mph 1022.2mb 19f
12:48pm 29 32 mph - -
12:42pm 26 34 mph 1022.1mb 19f
12:36pm 26 37 mph 1022mb 19f
12:30pm 26 30 mph 1021.9mb 20f
12:24pm 25 30 mph 1021.9mb 20f
12:12pm 24 29 mph 1021.8mb 19f
12:06pm 24 31 mph 1021.9mb 19f
12:00pm 23 32 mph 1021.9mb 20f
11:54am 26 33 mph 1021.9mb 19f
11:48am 25 32 mph 1021.9mb 19f
11:42am 22 32 mph 1021.9mb 20f
11:36am 25 33 mph 1021.9mb 20f
11:30am 28 30 mph 1021.8mb 20f
11:24am 26 32 mph 1021.8mb 20f
11:18am 25 32 mph 1021.8mb 21f
11:12am 26 32 mph 1021.9mb 20f
11:06am 24 31 mph 1021.9mb 20f
11:00am 24 30 mph 1021.9mb 20f
10:54am 22 30 mph 1022mb 20f
10:48am 25 30 mph 1022mb -
10:42am 23 29 mph 1022mb 20f
10:36am 25 31 mph 1022mb 20f
10:30am 21 26 mph 1022mb 21f
10:24am 21 29 mph 1022.1mb 20f
10:18am 21 32 mph 1022.2mb 20f
10:12am 25 31 mph 1022.1mb 20f
10:06am 18 30 mph 1022.1mb 20f
9:54am 22 29 mph 1022mb 21f
9:48am 21 29 mph 1022mb 21f
9:42am 24 29 mph 1021.9mb 21f
9:36am 25 31 mph 1021.9mb 21f
9:30am 24 34 mph 1021.8mb 20f
9:24am 22 30 mph 1021.8mb 21f
9:18am 22 26 mph 1021.8mb 21f
9:12am 21 28 mph 1021.7mb 21f
9:06am 25 32 mph 1021.7mb 21f
9:00am 23 29 mph 1021.6mb 21f
8:54am 22 29 mph 1021.5mb 22f
8:48am 25 30 mph 1021.5mb 22f
8:42am 22 28 mph 1021.5mb 22f
8:36am 24 29 mph 1021.5mb 22f
8:30am 26 32 mph 1021.5mb 21f
8:24am 25 30 mph 1021.4mb 21f
8:18am 26 32 mph 1021.2mb 22f
8:12am 23 29 mph 1021.1mb 23f
8:06am 26 31 mph 1021.1mb 22f
8:00am 24 30 mph 1020.9mb 23f
7:54am 23 29 mph 1020.9mb 23f
7:48am 24 30 mph 1020.9mb 23f
7:42am 26 31 mph 1020.9mb 23f
7:36am 28 32 mph 1020.8mb 22f
7:30am 24 31 mph 1020.8mb 23f
7:24am 23 31 mph 1020.8mb 22f
7:18am 23 31 mph 1020.8mb 23f
7:12am 26 33 mph 1020.7mb 23f
7:06am 22 33 mph 1020.8mb 22f
7:00am 29 33 mph 1020.7mb 23f
6:54am 28 33 mph 1020.8mb 23f
6:48am 21 30 mph 1020.7mb 24f
6:42am 23 32 mph 1020.6mb 24f
6:36am 21 32 mph 1020.6mb 25f
6:30am 22 29 mph 1020.6mb 25f
6:24am 25 30 mph 1020.5mb 25f
6:18am 21 33 mph 1020.4mb 25f
6:12am 22 30 mph 1020.4mb 25f
6:06am 22 30 mph 1020.4mb 25f
6:00am 21 28 mph 1020.3mb 25f
5:54am 22 31 mph 1020.2mb 25f
5:48am 24 29 mph 1020.2mb 25f
5:42am 28 36 mph 1020.4mb 24f
5:36am 26 33 mph 1020.3mb 25f
5:30am 23 32 mph 1020.4mb 25f
5:24am 25 32 mph 1020.4mb 24f
5:18am 26 31 mph 1020.4mb 25f
5:12am 24 29 mph 1020.3mb 25f
5:06am 26 31 mph 1020.3mb 25f
5:00am 25 29 mph 1020.2mb 25f
4:54am 23 32 mph 1020.3mb 26f
4:48am 25 32 mph 1020.3mb 26f
4:42am 26 33 mph 1020.3mb 26f
4:36am 26 31 mph 1020.3mb 26f
4:30am 29 33 mph 1020.3mb 26f
4:24am 29 33 mph 1020.2mb 26f
4:18am 29 34 mph 1020.2mb 26f
4:12am 29 33 mph 1020.3mb 26f
4:06am 29 36 mph 1020.2mb 26f
4:00am 28 33 mph 1020.1mb 27f
3:54am 29 33 mph 1020.1mb 27f
3:48am 30 34 mph 1020.1mb 27f
3:42am 29 31 mph 1020mb 27f
3:36am 26 32 mph 1020mb 28f
3:30am 28 33 mph 1019.9mb 27f
3:24am 29 32 mph 1019.9mb 27f
3:18am 25 30 mph 1019.9mb 28f
3:12am 26 31 mph 1019.9mb 28f
3:06am 26 29 mph 1019.8mb 28f
3:00am 24 29 mph 1019.9mb 28f
2:54am 24 29 mph 1019.8mb 28f
2:48am 21 24 mph 1019.9mb 27f
2:42am 20 22 mph 1019.8mb 27f
2:36am 14 21 mph 1019.9mb 28f
2:30am 10 17 mph 1019.9mb 27f
2:24am 9 14 mph 1020mb 26f
2:18am 9 14 mph 1019.9mb 26f
2:12am 7 13 mph 1019.9mb 26f
2:06am 7 10 mph 1020mb 26f
2:00am 5 9 mph 1020mb 25f
1:54am 5 8 mph 1020mb 25f
1:48am 6 8 mph 1020mb 25f
1:42am 5 6 mph 1020mb 25f
1:36am 3 6 mph 1019.9mb 25f
1:30am 2 5 mph 1019.8mb 25f
1:24am 2 3 mph 1019.8mb 24f
1:18am 1 2 mph 1019.8mb 24f
1:12am 2
mph
1019.8mb 24f
1:06am 2 3 mph 1019.7mb 24f
1:00am 2 3 mph 1019.7mb 24f
12:54am 2 3 mph 1019.8mb 24f
12:48am 2 3 mph 1019.7mb 24f
12:42am 2
mph
1019.7mb 24f
12:36am 1 2 mph 1019.8mb 24f
12:30am 1 2 mph 1019.8mb 24f
12:24am 1 2 mph 1019.8mb 25f
12:18am 2 3 mph 1019.8mb 25f
12:12am 1 3 mph 1019.8mb 25f
12:06am 2 5 mph 1019.8mb 25f
12:00am 1 3 mph 1019.8mb 25f
Wed 11/26 11:54pm 2 5 mph 1019.8mb 25f
11:48pm  -  5 mph 1019.8mb 25f
11:42pm 2 3 mph 1019.7mb 25f
11:36pm 3 5 mph 1019.6mb 25f
11:30pm 2 3 mph 1019.7mb 25f
11:24pm 1 2 mph 1019.7mb 25f
11:18pm  -  2 mph 1019.7mb 25f
11:12pm 1 3 mph 1019.6mb 25f
11:06pm 2 5 mph 1019.6mb 25f
11:00pm 3 5 mph 1019.6mb 25f
10:54pm 2 3 mph 1019.5mb 25f
10:48pm 3
mph
1019.5mb 25f
10:42pm 1 5 mph 1019.5mb 25f
10:36pm 3 5 mph 1019.5mb 25f
10:30pm 2 5 mph 1019.5mb 25f
10:24pm 3 8 mph 1019.4mb 25f
10:18pm 3 6 mph 1019.5mb 25f
10:12pm 3 7 mph 1019.5mb 25f
10:06pm 3 6 mph 1019.6mb 25f
10:00pm 3 5 mph 1019.6mb 25f
9:54pm 3 6 mph 1019.7mb 25f
9:48pm 2 5 mph 1019.7mb 25f
9:42pm 3 6 mph 1019.7mb 25f
9:36pm 3 5 mph 1019.8mb 25f
9:30pm 3 6 mph 1019.8mb 25f
9:24pm 3 5 mph 1019.8mb 25f
9:18pm 2 5 mph 1019.8mb 25f
9:12pm 2 6 mph 1019.8mb 25f
9:06pm 3 6 mph 1019.8mb 25f
9:00pm 3 6 mph 1019.8mb 25f
8:54pm 3 6 mph 1019.8mb 25f
8:48pm 2 5 mph 1019.8mb 26f
8:42pm 3 7 mph 1019.8mb 26f
8:36pm 5 7 mph 1019.8mb 26f
8:30pm 3 6 mph 1019.8mb 26f
8:24pm 3 5 mph 1019.8mb 26f
8:18pm 5 7 mph 1019.9mb 26f
8:12pm 5 8 mph 1019.9mb 26f
8:06pm 5 7 mph 1019.9mb 26f
8:00pm 5 9 mph 1019.9mb 26f
7:54pm 5 11 mph 1019.9mb 26f
7:48pm 5 8 mph 1019.9mb 26f
7:42pm 3 7 mph 1020mb 26f
7:36pm 5 9 mph 1020mb 26f
7:30pm 8 10 mph 1020mb 26f
7:24pm 5 8 mph 1020.1mb 26f
7:18pm 3 6 mph 1020.2mb 26f
7:12pm 5 6 mph 1020.3mb 26f
7:06pm 3 5 mph 1020.4mb 26f
6:48pm 10 14 mph 1020.4mb 28f
6:36pm 11 15 mph 1020.5mb 27f
6:30pm 11 13 mph 1020.5mb 27f
6:24pm 10 13 mph 1020.5mb 27f
6:18pm 3 6 mph 1020.6mb 26f
6:12pm 2 6 mph 1020.7mb 26f
6:06pm 3 6 mph 1020.7mb 26f
6:00pm 3 6 mph 1020.8mb 26f
5:54pm 5 7 mph 1020.8mb 26f
5:48pm 3 5 mph 1020.9mb -
5:42pm 2 5 mph 1020.9mb 26f
5:36pm 3 6 mph 1020.9mb 26f
5:30pm 6 10 mph 1020.9mb 26f
5:24pm 5 9 mph 1020.9mb 26f
5:18pm 6 8 mph 1020.9mb 27f
5:12pm 8 10 mph 1021mb 27f
5:06pm 7 9 mph 1021mb 27f
4:54pm 8 11 mph 1021.1mb 27f
4:48pm 8 11 mph 1021.1mb 27f
4:42pm 7 10 mph 1021.1mb 26f
4:36pm 6 10 mph 1021.2mb 26f
4:30pm 5 8 mph 1021.2mb -
4:24pm 5 9 mph 1021.2mb 26f
4:18pm 3 9 mph 1021.1mb 26f
4:06pm 5 13 mph 1021.2mb 27f
4:00pm 7 10 mph 1021.1mb 27f
3:54pm 8 11 mph 1021.1mb 27f
3:48pm 6 9 mph 1021.1mb 27f
3:42pm 5 11 mph 1021.1mb 27f
3:36pm 7 9 mph 1021.1mb 27f
3:30pm 7 9 mph 1021mb 26f
3:24pm 6 9 mph 1021.1mb 26f
3:18pm 8 10 mph 1021mb 26f
3:12pm 7 10 mph 1021mb 26f
3:06pm 3 7 mph 1021mb 26f
3:00pm 6 8 mph 1021mb 26f
2:54pm 5 7 mph 1021mb 26f
2:48pm 5 7 mph 1021mb 26f
2:42pm 6 9 mph 1020.9mb 26f
2:36pm 6 10 mph 1020.9mb 26f
2:30pm 7 10 mph 1021mb 26f
2:24pm 7 11 mph 1020.9mb 26f
2:18pm 10 13 mph 1020.8mb 26f
2:12pm 8 11 mph 1020.8mb 26f
2:06pm 7 16 mph 1020.9mb 26f
1:54pm 9 15 mph 1020.8mb 26f
1:48pm 13 15 mph 1020.8mb 26f
1:42pm 14 16 mph 1020.8mb 26f
1:36pm 11 16 mph 1020.8mb 26f
1:30pm 9 14 mph 1020.8mb 26f
1:24pm 10 17 mph 1020.9mb 26f
1:18pm 10 16 mph 1021mb 26f
1:12pm 10 15 mph 1020.9mb 26f
1:06pm 13 17 mph 1020.9mb 26f
1:00pm 13 17 mph 1021mb 26f
12:54pm 11 15 mph 1021mb 26f
12:48pm 11 15 mph 1021mb 26f
12:42pm 10 16 mph 1021mb 25f
12:36pm 10 14 mph 1021mb 25f
12:30pm 10 13 mph 1021.1mb 25f
12:24pm 7 11 mph 1021.2mb 25f
12:18pm 6 8 mph 1021.3mb 25f
12:12pm 6 7 mph 1021.4mb 25f
12:06pm 3 7 mph 1021.5mb 25f
12:00pm 3 7 mph 1021.6mb 25f
11:54am 2 8 mph 1021.6mb 25f
11:48am 5 8 mph 1021.6mb 25f
11:42am 3 7 mph 1021.6mb 25f
11:36am 3 7 mph 1021.6mb 25f
11:30am 5 6 mph 1021.6mb 25f
11:24am 3 7 mph 1021.6mb 25f
11:18am 3 6 mph 1021.6mb 25f
11:12am 3 6 mph 1021.6mb 25f
11:06am 3 6 mph 1021.6mb 25f
11:00am 3 6 mph 1021.6mb 25f
10:54am 2 5 mph 1021.7mb 25f
10:48am 5 7 mph 1021.7mb 26f
10:42am 7 8 mph 1021.8mb 26f
10:36am 5
mph
1021.8mb 26f
10:30am 2 6 mph 1021.8mb 26f
10:24am 3 6 mph 1021.8mb 26f
10:18am 6 7 mph 1021.8mb 26f
10:12am 3 6 mph 1021.9mb 26f
10:06am 1 3 mph 1021.9mb 25f
9:54am 2 3 mph 1022mb 24f
9:48am 2 3 mph 1022.1mb 24f
9:42am 3 5 mph 1022.1mb 24f
9:36am 2 6 mph 1022.1mb 23f
9:30am 2 6 mph 1022.1mb 23f
9:24am 3 6 mph 1022.2mb 23f
9:18am 5 7 mph 1022.2mb 23f
9:06am 5 7 mph 1022.1mb 22f
9:00am 5 7 mph 1022mb 22f
8:54am 5 8 mph 1022mb 22f
8:48am 6 9 mph 1021.9mb 22f
8:42am 5 7 mph 1021.9mb 22f
8:36am 6 7 mph 1021.8mb 22f
8:30am 5 6 mph 1021.9mb 22f
8:24am 3 7 mph 1021.8mb 22f
8:18am 6 8 mph 1021.8mb 22f
8:12am 6 8 mph 1021.9mb 22f
8:06am 6 8 mph 1021.8mb 22f
8:00am 5 7 mph 1021.7mb 22f
7:54am 3 6 mph 1021.7mb 22f
7:48am 5 7 mph 1021.6mb 22f
7:42am 5 6 mph 1021.6mb 22f
7:36am 5 6 mph 1021.7mb 22f
7:30am 5 6 mph 1021.7mb 21f
7:24am 3 5 mph 1021.6mb 21f
7:18am 2 6 mph 1021.5mb 21f
7:12am 3 7 mph 1021.3mb 22f
7:06am 6 7 mph 1021.3mb 22f
7:00am 5 6 mph 1021.3mb 21f
6:54am 3 6 mph 1021.2mb 19f
6:48am 5 8 mph 1021.2mb 20f
6:42am 5 6 mph 1021.1mb 20f
6:36am 5 6 mph 1021.1mb 21f
6:30am 3 5 mph 1021.2mb 21f
6:24am 3 6 mph 1021.2mb 21f
6:18am 5 6 mph 1021.1mb 21f
6:12am 5 6 mph 1021.1mb 20f
6:06am 5
mph
1021.1mb 18f
6:00am 2 3 mph 1021.1mb 16f
5:54am 1 3 mph 1021mb 16f
5:48am 3
mph
1021mb 18f
5:42am 1 5 mph 1020.9mb 16f
5:36am 5 7 mph 1021.1mb 17f
5:30am 5 6 mph 1021.2mb 17f
5:24am 3 6 mph 1021.2mb 17f
5:18am 5 6 mph 1021.2mb 19f
5:12am 1 5 mph 1021.2mb 18f
5:06am 3 5 mph 1021.3mb 20f
5:00am 3 5 mph 1021.3mb 19f
4:54am 3 6 mph 1021.3mb 19f
4:48am 2 3 mph 1021.4mb 17f
4:42am 1 5 mph 1021.3mb 17f
4:36am 5 6 mph 1021.3mb 19f
4:30am 3
mph
1021.3mb 21f
4:24am 2 3 mph 1021.4mb 21f
4:18am 2 5 mph 1021.4mb 21f
4:12am 2 5 mph 1021.5mb 21f
4:00am 3 5 mph 1021.5mb 21f
3:54am 2 3 mph 1021.5mb 20f
3:48am 2 3 mph 1021.5mb 20f
3:42am 2 5 mph 1021.5mb 21f
3:36am 2 5 mph 1021.5mb 21f
3:30am 2 5 mph 1021.5mb 21f
3:24am 2 5 mph 1021.5mb 21f
3:18am 2 5 mph 1021.5mb 20f
3:12am 2 5 mph 1021.6mb 21f
3:06am 3 5 mph 1021.6mb 22f
3:00am 3 6 mph 1021.6mb 22f
2:54am 1 3 mph 1021.6mb 22f
2:48am 3 5 mph 1021.5mb 22f
2:42am 3 6 mph 1021.6mb 22f
2:36am 3 5 mph 1021.6mb 22f
2:30am 3 5 mph 1021.6mb 22f
2:24am 3 5 mph 1021.7mb 21f
2:18am 2 5 mph 1021.7mb 21f
2:12am 3 7 mph 1021.7mb 21f
2:06am 2 5 mph 1021.7mb 21f
2:00am 2 5 mph 1021.8mb 21f
1:54am 3 7 mph 1021.8mb 21f
1:48am 3 7 mph 1021.8mb 21f
1:42am 2 6 mph 1021.8mb 21f
1:36am 2 6 mph 1021.7mb 22f
1:30am 2 5 mph 1021.6mb 22f
1:24am 3 7 mph 1021.5mb 22f
1:18am 3 7 mph 1021.4mb 23f
1:12am 5 8 mph 1021.4mb 23f
1:06am 5 10 mph 1021.3mb 23f
1:00am 6 10 mph 1021.2mb 23f
12:54am 5 9 mph 1021.2mb 23f
12:48am 5 11 mph 1021.1mb 24f
12:42am 7 14 mph 1021.1mb 24f
12:36am 6 9 mph 1021mb 24f
12:30am 5 10 mph 1021mb 24f
12:24am 6 11 mph 1020.8mb 24f
12:18am 6 9 mph 1020.7mb 24f
12:12am 7 10 mph 1020.7mb 24f
12:06am 6 10 mph 1020.7mb 24f
12:00am 6 8 mph 1020.6mb 24f
Tue 11/25 11:54pm 6 9 mph 1020.6mb 24f
11:48pm 3 10 mph 1020.6mb 24f
11:42pm 5 7 mph 1020.6mb 24f
11:36pm 5 9 mph 1020.5mb 24f
11:30pm 5 9 mph 1020.5mb 24f
11:24pm 3 8 mph 1020.4mb 24f
11:18pm 5 8 mph 1020.4mb 24f
11:12pm 5 8 mph 1020.3mb 24f
11:06pm 5 7 mph 1020.2mb 24f
11:00pm 5 9 mph 1020.3mb 24f
10:54pm 5 10 mph 1020.3mb 24f
10:48pm 5 9 mph 1020.2mb 24f
10:42pm 5 9 mph 1020.2mb 24f
10:36pm 6 10 mph 1020.1mb 24f
10:30pm 7 9 mph 1020.2mb 24f
10:24pm 7 13 mph 1020mb 24f
10:18pm 6 10 mph 1019.9mb 24f
10:12pm 5 9 mph 1019.8mb 24f
10:06pm 5 10 mph 1019.7mb 25f
10:00pm 6 10 mph 1019.6mb 25f
9:54pm 6 10 mph 1019.6mb 25f
9:48pm 6 9 mph 1019.5mb 25f
9:42pm 5 8 mph 1019.4mb 25f
9:36pm 6 10 mph 1019.3mb 25f
9:30pm 6 10 mph 1019.1mb 25f
9:24pm 6 10 mph 1019mb 25f
9:18pm 6 10 mph 1018.8mb 25f
9:12pm 6 10 mph 1018.8mb 25f
9:06pm 5 9 mph 1018.7mb 25f
9:00pm 3 7 mph 1018.7mb 25f
8:54pm 3 8 mph 1018.6mb 25f
8:48pm 6 8 mph 1018.5mb 25f
8:42pm 6 9 mph 1018.4mb 25f
8:36pm 3 9 mph 1018.3mb 25f
8:30pm 5 9 mph 1018.2mb 25f
8:24pm 6 10 mph 1018.2mb 25f
8:18pm 5 10 mph 1018.1mb 25f
8:12pm 6 10 mph 1018.1mb 25f
8:06pm 5 8 mph 1018mb 25f
8:00pm 5 7 mph 1017.9mb 25f
7:54pm 5 10 mph 1017.9mb 25f
7:48pm 6 14 mph 1017.9mb 25f
7:42pm 7 14 mph 1017.8mb 25f
7:36pm 6 13 mph 1017.7mb 26f
7:30pm 8 14 mph 1017.6mb 26f
7:24pm 6 11 mph 1017.5mb 26f
7:18pm 6 13 mph 1017.4mb 27f
7:12pm 11 22 mph 1017.4mb 27f
7:06pm 7 22 mph 1017.4mb 27f
7:00pm 22 26 mph 1017.2mb 28f
6:54pm 14 25 mph 1017.2mb 28f
6:48pm 16 26 mph 1017.2mb 28f
6:42pm 16 26 mph 1017mb 28f
6:36pm 20 22 mph 1016.9mb 28f
6:30pm 17 23 mph 1016.8mb 28f
6:24pm 15 23 mph 1016.7mb 28f
6:18pm 15 22 mph 1016.6mb 28f
6:12pm 14 23 mph 1016.5mb 28f
6:06pm 13 23 mph 1016.3mb 28f
6:00pm 18 26 mph 1016.2mb 28f
5:54pm 18 24 mph 1016.1mb 28f
5:48pm 17 22 mph 1016.1mb 28f
5:42pm 16 23 mph 1016mb 28f
5:36pm 16 25 mph 1016mb 28f
5:30pm 17 28 mph 1015.9mb 28f
5:24pm 14 26 mph 1015.9mb 28f
5:18pm 14 25 mph 1015.9mb 28f
5:12pm 15 25 mph 1015.8mb 28f
5:06pm 17 25 mph 1015.8mb 28f
5:00pm 20 25 mph 1015.7mb 28f
4:54pm 16 24 mph 1015.6mb 28f
4:48pm 14 23 mph 1015.5mb 28f
4:42pm 17 24 mph 1015.4mb 28f
4:36pm 14 22 mph 1015.2mb 28f
4:30pm 15 24 mph 1015mb 28f
4:24pm 16 22 mph 1014.9mb 29f
4:18pm 16 22 mph 1014.8mb 28f
4:12pm 16 23 mph 1014.8mb 28f
4:06pm 16 28 mph 1014.7mb 28f
4:00pm 17 22 mph 1014.6mb 29f
3:54pm 17 23 mph 1014.5mb 28f
3:48pm 21 26 mph 1014.4mb 28f
3:42pm 17 21 mph 1014.3mb 28f
3:36pm 16 23 mph 1014.2mb 28f
3:30pm 15 22 mph 1014.1mb 28f
3:24pm 18 23 mph 1014.1mb 28f
3:18pm 16 23 mph 1014mb 28f
3:12pm 18 22 mph 1013.8mb 28f
3:06pm 14 23 mph 1013.7mb 28f
3:00pm 17 23 mph 1013.6mb 29f
2:54pm 15 24 mph 1013.6mb 28f
2:48pm 21 28 mph 1013.4mb 28f
2:42pm 15 25 mph 1013.2mb 29f
2:36pm 22 25 mph 1013.1mb 29f
2:30pm 20 28 mph 1013mb 28f
2:24pm 23 30 mph 1012.8mb 29f
2:18pm 16 26 mph 1012.7mb 29f
2:12pm 17 23 mph 1012.5mb 28f
2:06pm 16 21 mph 1012.4mb 28f
2:00pm 17 21 mph 1012.3mb 27f
1:54pm 14 18 mph 1012.2mb 28f
1:48pm 14 18 mph 1012.3mb 27f
1:42pm 13 17 mph 1012.1mb 27f
1:36pm 13 16 mph 1012mb 27f
1:30pm 14 18 mph 1011.9mb 27f
1:24pm 15 18 mph 1011.8mb 27f
1:18pm 13 16 mph 1011.7mb 27f
1:12pm 10 15 mph 1011.6mb 27f
1:06pm 13 16 mph 1011.5mb 27f
1:00pm 11 15 mph 1011.4mb 26f
12:54pm 10 16 mph 1011.3mb 26f
12:48pm 11 16 mph 1011.2mb 26f
12:42pm 13 15 mph 1011.1mb 26f
12:36pm 11 16 mph 1011mb 26f
12:30pm 11 15 mph 1010.9mb 26f
12:24pm 13 15 mph 1010.8mb 25f
12:18pm 11 15 mph 1010.8mb 25f
12:12pm 13 15 mph 1010.6mb 25f
12:06pm 11 16 mph 1010.6mb 25f
12:00pm 11 14 mph 1010.5mb 25f
11:54am 11 15 mph 1010.4mb 25f
11:48am 10 13 mph 1010.3mb 26f
11:42am 10 13 mph 1010.1mb 25f
11:36am 11 16 mph 1010mb 25f
11:30am 11 13 mph 1009.9mb 25f
11:24am 9 11 mph 1009.8mb 25f
11:18am 10 14 mph 1009.8mb 25f
11:12am 13 14 mph 1009.7mb 25f
11:06am 11 14 mph 1009.6mb 25f
11:00am 10 14 mph 1009.6mb 25f
10:54am 10 14 mph 1009.6mb 25f
10:48am 9 15 mph 1009.5mb 24f
10:42am 10 14 mph 1009.5mb 24f
10:36am 11 14 mph 1009.5mb 24f
10:30am 11 15 mph 1009.4mb 24f
10:24am 13 16 mph 1009.4mb 24f
10:18am 11 15 mph 1009.3mb 24f
10:12am 14 18 mph 1009.2mb 25f
10:06am 14 17 mph 1009mb 25f
10:00am 11 14 mph 1009mb 24f
9:54am 13 15 mph 1008.9mb 24f
9:48am 13 15 mph 1008.8mb 24f
9:42am 9 14 mph 1008.6mb 24f
9:36am 13 16 mph 1008.5mb 24f
9:30am 14 17 mph 1008.4mb 24f
9:24am 15 18 mph 1008.3mb 24f
9:18am 15 17 mph 1008.2mb 23f
9:12am 13 17 mph 1008mb 24f
9:06am 13 15 mph 1008mb 24f
9:00am 11 15 mph 1007.9mb 24f
8:54am 14 17 mph 1007.8mb 23f
8:48am 15 17 mph 1007.7mb 24f
8:42am 15 21 mph 1007.5mb 23f
8:36am 16 20 mph 1007.4mb 24f
8:30am 16 20 mph 1007.3mb 24f
8:24am 15 18 mph 1007.2mb 24f
8:18am 14 17 mph - -
8:12am 15 18 mph - -
8:06am 15 18 mph - -
8:00am 15 18 mph 1006.8mb 24f
7:54am 15 18 mph 1006.7mb 24f
7:48am 16 22 mph 1006.5mb 24f
7:42am 17 21 mph 1006.4mb 24f
7:36am 16 20 mph 1006.2mb 24f
7:30am 16 21 mph 1006.1mb 24f
7:24am 16 22 mph 1005.9mb 24f
7:18am 17 22 mph 1005.8mb 24f
7:12am 17 21 mph 1005.6mb 24f
7:06am 17 21 mph 1005.5mb 24f
7:00am 17 22 mph 1005.3mb 24f
6:54am 18 22 mph 1005.1mb 24f
6:48am 18 23 mph 1005mb 25f
6:42am 20 24 mph 1004.9mb 25f
6:36am 20 22 mph 1004.8mb 25f
6:30am 18 24 mph 1004.6mb 25f
6:24am 20 25 mph 1004.4mb 25f
6:18am 21 26 mph 1004.2mb 25f
6:12am 22 26 mph 1004mb 25f
6:06am 18 26 mph 1003.9mb 25f
6:00am 21 24 mph 1003.7mb 26f
5:54am 15 20 mph 1003.7mb 25f
5:48am 16 22 mph 1003.5mb 25f
5:42am 17 21 mph 1003.4mb 25f
5:36am 17 22 mph 1003.3mb 25f
5:30am 16 20 mph 1003.1mb 25f
5:24am 18 22 mph 1003mb 25f
5:18am 17 23 mph 1002.9mb 26f
5:12am 20 23 mph 1002.8mb 25f
5:06am 18 22 mph 1002.7mb 25f
5:00am 20 22 mph 1002.5mb 25f
4:54am 18 22 mph 1002.5mb 25f
4:48am 21 23 mph 1002.4mb 25f
4:42am 21 24 mph 1002.2mb 25f
4:36am 21 24 mph 1002.1mb 26f
4:30am 18 23 mph 1002mb 26f
4:24am 20 23 mph 1001.9mb 26f
4:18am 18 24 mph 1001.9mb 26f
4:12am 21 26 mph 1001.7mb 26f
4:06am 18 22 mph 1001.6mb 26f
4:00am 18 23 mph 1001.5mb 26f
3:54am 20 24 mph 1001.4mb 26f
3:48am 16 22 mph 1001.4mb 27f
3:42am 16 28 mph 1001.2mb 26f
3:36am 14 21 mph 1001mb 25f
3:30am 16 21 mph 1000.9mb 26f
3:24am 18 23 mph 1000.8mb 25f
3:18am 17 21 mph 1000.7mb 26f
3:12am 18 22 mph 1000.7mb 26f
3:06am 18 23 mph 1000.5mb 26f
3:00am 21 26 mph 1000.4mb 27f
2:54am 22 24 mph 1000.2mb 27f
2:48am 17 21 mph 1000.2mb 27f
2:42am 17 22 mph 1000.1mb 26f
2:36am 18 23 mph 1000mb 27f
2:30am 21 24 mph 999.9mb 27f
2:24am 18 20 mph 999.7mb 27f
2:18am 18 21 mph 999.6mb 27f
2:12am 18 20 mph 999.5mb 27f
2:06am 18 22 mph 999.5mb 27f
2:00am 16 22 mph 999.4mb 27f
1:54am 21 25 mph 999.4mb 27f
1:48am 21 25 mph 999.2mb 27f
1:42am 21 25 mph 999.1mb 27f
1:36am 21 24 mph 998.9mb 27f
1:30am 22 28 mph 998.7mb 27f
1:24am 22 24 mph 998.5mb 28f
1:18am 18 23 mph 998.3mb 28f
1:12am 21 24 mph 998.1mb 28f
1:06am 20 23 mph 998mb 28f
1:00am 22 23 mph 997.9mb 28f
12:54am 20 22 mph 997.8mb 28f
12:48am 20 24 mph 997.7mb 28f
12:42am 21 23 mph 997.6mb 28f
12:36am 20 22 mph 997.4mb 28f
12:30am 17 23 mph 997.4mb 28f
12:24am 20 24 mph 997.3mb 28f
12:18am 21 24 mph 997.1mb 28f
12:12am 20 24 mph 997.1mb 28f
12:06am 20 23 mph 997mb 28f
12:00am 17 23 mph 997mb 28f
Mon 11/24 11:54pm 18 22 mph 996.8mb 28f
11:48pm 20 22 mph 996.6mb 28f
11:42pm 17 23 mph 996.5mb 28f
11:36pm 17 22 mph 996.3mb 28f
11:30pm 18 22 mph 996.1mb 28f
11:24pm 21 24 mph 996mb 28f
11:18pm 18 23 mph 995.7mb 29f
11:12pm 22 25 mph 995.5mb 28f
11:06pm 21 25 mph 995.4mb 29f
11:00pm 22 25 mph 995.1mb 29f
10:54pm 21 24 mph 995.1mb 29f
10:48pm 21 24 mph 994.9mb 28f
10:42pm 21 23 mph 994.8mb 29f
10:36pm 18 22 mph 994.6mb 29f
10:30pm 18 21 mph 994.4mb 29f
10:24pm 21 23 mph 994.3mb 29f
10:18pm 21 24 mph 994.1mb 29f
10:12pm 21 23 mph 993.9mb 29f
10:06pm 20 24 mph 993.7mb 29f
10:00pm 18 21 mph 993.6mb 29f
9:54pm 18 22 mph 993.5mb 29f
9:48pm 20 22 mph 993.3mb 30f
9:42pm 18 22 mph 993.2mb 30f
9:36pm 18 21 mph 993mb 30f
9:30pm 18 22 mph 992.9mb 30f
9:24pm 18 21 mph 992.7mb 30f
9:18pm 21 23 mph 992.5mb 30f
9:12pm 20 23 mph 992.4mb 31f
9:06pm 20 23 mph 992.2mb 31f
9:00pm 20 22 mph 992.1mb 31f
8:54pm 17 22 mph 991.9mb 31f
8:48pm 18 24 mph 991.7mb 32f
8:42pm 21 23 mph 991.5mb 32f
8:36pm 21 24 mph 991.3mb 32f
8:30pm 20 23 mph 991.1mb 33f
8:24pm 21 24 mph 991mb 33f
8:18pm 21 24 mph 990.8mb 33f
8:12pm 20 23 mph 990.7mb 33f
8:06pm 20 23 mph 990.5mb 34f
8:00pm 21 23 mph 990.3mb 33f
7:54pm 21 22 mph 990.2mb 34f
7:48pm 21 23 mph 990mb 34f
7:42pm 18 22 mph 989.8mb 35f
7:36pm 18 21 mph 989.6mb 35f
7:30pm 17 23 mph 989.4mb 36f
7:24pm 21 24 mph 989.3mb 36f
7:18pm 18 24 mph 989.2mb 37f
7:12pm 21 23 mph 989.1mb 37f
7:06pm 20 24 mph 989mb 37f
7:00pm 22 24 mph 988.8mb 36f
6:54pm 21 24 mph 988.7mb 36f
6:48pm 22 24 mph 988.6mb 36f
6:42pm 20 23 mph 988.5mb 36f
6:36pm 21 24 mph 988.3mb 36f
6:30pm 20 24 mph 988.3mb 37f
6:24pm 22 26 mph 988.1mb 37f
6:18pm 23 28 mph 988mb 37f
6:12pm 23 28 mph 988mb 37f
6:06pm 24 25 mph 987.9mb 37f
6:00pm 23 26 mph 987.7mb 37f
5:54pm 23 28 mph 987.5mb 37f
5:48pm 22 26 mph 987.4mb 37f
5:42pm 23 26 mph 987.3mb 37f
5:30pm 22 25 mph 987.1mb 37f
5:24pm 23 26 mph 987mb 37f
5:18pm 25 28 mph 986.9mb 37f
5:12pm 24 26 mph 986.9mb 37f
5:06pm 22 26 mph 986.8mb 38f
4:54pm 20 26 mph 986.7mb 38f
4:48pm 20 23 mph 986.6mb 38f
4:42pm 20 25 mph 986.5mb 38f
4:36pm 18 24 mph 986.4mb 38f
4:30pm 22 26 mph 986.3mb 38f
4:24pm 20 24 mph 986.1mb 38f
4:18pm 21 26 mph 985.9mb 38f
4:12pm 22 28 mph 985.7mb 38f
4:06pm 23 28 mph 985.6mb 38f
4:00pm 22 29 mph 985.5mb 38f
3:54pm 23 29 mph 985.3mb 38f
3:48pm 25 31 mph 985.2mb 38f
3:42pm 26 29 mph 985mb 38f
3:36pm 24 28 mph 984.8mb 38f
3:30pm 24 29 mph 984.6mb 38f
3:24pm 28 31 mph 984.5mb 38f
3:18pm 26 30 mph 984.3mb 38f
3:12pm 23 29 mph 984.2mb 38f
3:06pm 23 29 mph 984.1mb 38f
3:00pm 21 24 mph 984.1mb 38f
2:54pm 18 23 mph 984mb 39f
2:48pm 20 24 mph 983.8mb 39f
2:42pm 20 22 mph 983.7mb 39f
2:36pm 20 22 mph 983.5mb 39f
2:30pm 20 23 mph 983.4mb 39f
2:24pm 20 24 mph 983.3mb 39f
2:18pm 17 22 mph 983mb 39f
2:12pm 17 20 mph 982.9mb 40f
2:06pm 17 23 mph 982.7mb 40f
2:00pm 13 21 mph 982.5mb 40f